Weather in Krinitsa

Poland     49°24′47″N   20°57′14″E
temp.,
°C
wind,
m/s
gust,
m/s
humid.,
%
clouds,
%
prec.,
mm/h
press.,
hPa
HPBL,
m
20 april, tue
tue2023:00+5nnw129993 0.4 101575
02:00+4n119882 0.5 101523
05:00+3nnw219894 0.1 101438
08:00+6n358356 0.6 1014636
11:00+9n346969 0.5 10141038
14:00+10n346274 1.6 10121414
17:00+9n347052 1.2 1012981
20:00+4wnw119333 2.3 101412
21 april, wed
wed2123:00+3wsw11925 0.1 101410
02:00+3sw11925 0.1 101510
05:00+3ssw219160 0.0 101415
08:00+7ssw128095 0.0 1014137
11:00+11wsw235946 0.4 10131465
14:00+10wnw247267 1.5 1013802
17:00+11wnw257586 2.1 1012916
20:00+7sw118658 3.8 101310
22 april, thu
thu2223:00+5ssw229074 0.1 101422
02:00+6ese119389 0.8 101415
05:00+4ssw2395100 0.3 101467
08:00+8s128794 0.3 1014217
11:00+7nnw3393100 1.9 1014536
14:00+3nnw3699100 14.2 1016460
17:00+2nnw3797100 0.6 1018599
20:00+1w1196100 0.6 101929
23 april, fri
fri2323:00−1wnw29967 0.0 1020301
02:00−2w22955 0.0 102022
05:00−2w239516 0.0 102172
08:00+2nw25714 0.0 1021853
11:00+5wnw4660100 0.5 10211568
14:00+6wnw4660100 1.4 10201582
17:00+6nw5107074 0.9 10191442
20:00+1nw5108684 1.5 10231076
24 april, sat
sat2423:00−1wnw3109345 0.1 1025507
02:00−3wsw22965 0.2 102545
05:00−3wsw11945 0.0 102618
08:00+2wnw375770 0.0 10251274
11:00+6wnw464020 0.0 10231786
14:00+9nw4737100 0.0 10202181
17:00+8nw465296 0.0 10191460
20:00+2nw1186100 0.0 102110